| time (UTC) | temp F | wind direction | speed MPH | gust MPH | rain 1hr in | rain 24hr in | rain mn in | humidity % | barometer mb |
| 20260903100715 | 73 | 158 | 1.0 | 4.0 | 0.00 | 0.00 | 0.00 | 89 | 1009.4 |
| 20260903100425 | 73 | 78 | 1.0 | 3.0 | 0.00 | 0.00 | 0.00 | 89 | 1009.3 |
| 20260903100316 | 73 | 146 | 1.0 | 3.0 | 0.00 | 0.00 | 0.00 | 89 | 1009.4 |
| 20260903095215 | 73 | 98 | 1.0 | 3.0 | 0.00 | 0.00 | 0.00 | 88 | 1009.3 |
| 20260903094716 | 73 | 100 | 0.0 | 3.0 | 0.00 | 0.00 | 0.00 | 88 | 1009.2 |
| 20260903094217 | 74 | 94 | 1.0 | 2.0 | 0.00 | 0.00 | 0.00 | 88 | 1009.2 |
| 20260903093713 | 74 | 88 | 1.0 | 2.0 | 0.00 | 0.00 | 0.00 | 88 | 1009.1 |
| 20260903093429 | 74 | 88 | 0.0 | 2.0 | 0.00 | 0.00 | 0.00 | 88 | 1009.3 |
| 20260903092709 | 74 | 90 | 0.0 | 3.0 | 0.00 | 0.00 | 0.00 | 88 | 1009.3 |
| 20260903092209 | 74 | 90 | 1.0 | 5.0 | 0.00 | 0.00 | 0.00 | 88 | 1009.3 |
| 20260903091930 | 74 | 73 | 2.0 | 6.0 | 0.00 | 0.00 | 0.00 | 87 | 1009.3 |
| 20260903091209 | 74 | 80 | 2.0 | 6.0 | 0.00 | 0.00 | 0.00 | 87 | 1009.2 |
| 20260903090933 | 74 | 87 | 2.0 | 5.0 | 0.00 | 0.00 | 0.00 | 87 | 1009.1 |
| 20260903090431 | 74 | 42 | 2.0 | 6.0 | 0.00 | 0.00 | 0.00 | 87 | 1009.0 |
| 20260903085722 | 74 | 70 | 3.0 | 7.0 | 0.00 | 0.00 | 0.00 | 87 | 1009.0 |
| 20260903085209 | 74 | 153 | 2.0 | 7.0 | 0.00 | 0.00 | 0.00 | 86 | 1009.1 |
| 20260903084710 | 74 | 81 | 2.0 | 5.0 | 0.00 | 0.00 | 0.00 | 86 | 1009.2 |
| 20260903084211 | 74 | 76 | 1.0 | 5.0 | 0.00 | 0.00 | 0.00 | 86 | 1009.2 |
| 20260903083710 | 74 | 80 | 1.0 | 4.0 | 0.00 | 0.00 | 0.00 | 86 | 1009.3 |
| 20260903083210 | 74 | 76 | 2.0 | 4.0 | 0.00 | 0.00 | 0.00 | 85 | 1009.2 |
| 20260903082709 | 74 | 77 | 2.0 | 4.0 | 0.00 | 0.00 | 0.00 | 85 | 1009.2 |
| 20260903082210 | 74 | 74 | 2.0 | 8.0 | 0.00 | 0.00 | 0.00 | 85 | 1009.4 |
| 20260903081707 | 74 | 79 | 3.0 | 8.0 | 0.00 | 0.00 | 0.00 | 85 | 1009.2 |
| 20260903081207 | 74 | 89 | 3.0 | 9.0 | 0.00 | 0.00 | 0.00 | 85 | 1009.2 |
| 20260903080710 | 74 | 80 | 3.0 | 9.0 | 0.00 | 0.00 | 0.00 | 85 | 1009.2 |
| 20260903080206 | 75 | 86 | 3.0 | 6.0 | 0.00 | 0.00 | 0.00 | 85 | 1009.3 |
| 20260903075703 | 75 | 87 | 2.0 | 6.0 | 0.00 | 0.00 | 0.00 | 85 | 1009.5 |
| 20260903075422 | 75 | 69 | 3.0 | 6.0 | 0.00 | 0.00 | 0.00 | 84 | 1009.5 |
| 20260903074658 | 75 | 87 | 3.0 | 6.0 | 0.00 | 0.00 | 0.00 | 84 | 1009.5 |
| 20260903074200 | 75 | 86 | 3.0 | 6.0 | 0.00 | 0.00 | 0.00 | 84 | 1009.5 |
| 20260903073653 | 75 | 69 | 3.0 | 6.0 | 0.00 | 0.00 | 0.00 | 84 | 1009.5 |
| 20260903073148 | 75 | 88 | 2.0 | 6.0 | 0.00 | 0.01 | 0.00 | 83 | 1009.5 |
| 20260903072649 | 75 | 76 | 3.0 | 6.0 | 0.00 | 0.01 | 0.00 | 83 | 1009.6 |
| 20260903072640 | 75 | 74 | 3.0 | 6.0 | 0.00 | 0.01 | 0.00 | 83 | 1009.5 |
| 20260903071646 | 75 | 65 | 3.0 | 7.0 | 0.00 | 0.02 | 0.00 | 83 | 1009.6 |
| 20260903071414 | 76 | 84 | 3.0 | 7.0 | 0.00 | 0.03 | 0.00 | 82 | 1009.7 |
| 20260903070647 | 76 | 71 | 3.0 | 6.0 | 0.00 | 0.03 | 0.00 | 82 | 1009.7 |
| 20260903070147 | 76 | 80 | 3.0 | 6.0 | 0.00 | 0.04 | 0.00 | 82 | 1009.8 |
| 20260903065648 | 76 | 90 | 3.0 | 6.0 | 0.00 | 0.04 | 0.00 | 82 | 1009.9 |
| 20260903065148 | 76 | 76 | 3.0 | 6.0 | 0.00 | 0.04 | 0.00 | 82 | 1009.8 |
| 20260903064647 | 76 | 78 | 3.0 | 6.0 | 0.00 | 0.04 | 0.00 | 81 | 1009.8 |
| 20260903064145 | 76 | 94 | 2.0 | 5.0 | 0.00 | 0.04 | 0.00 | 81 | 1009.7 |
| 20260903063646 | 76 | 85 | 1.0 | 6.0 | 0.00 | 0.04 | 0.00 | 81 | 1009.7 |
| 20260903063145 | 76 | 88 | 2.0 | 6.0 | 0.00 | 0.04 | 0.00 | 81 | 1009.8 |
| 20260903063130 | 76 | 90 | 3.0 | 6.0 | 0.00 | 0.04 | 0.00 | 80 | 1009.8 |
| 20260903062139 | 76 | 83 | 3.0 | 6.0 | 0.00 | 0.04 | 0.00 | 80 | 1009.9 |
| 20260903061641 | 77 | 79 | 3.0 | 6.0 | 0.00 | 0.04 | 0.00 | 80 | 1009.9 |
| 20260903061123 | 77 | 84 | 3.0 | 7.0 | 0.00 | 0.04 | 0.00 | 79 | 1009.9 |
| 20260903060623 | 77 | 65 | 3.0 | 8.0 | 0.00 | 0.04 | 0.00 | 79 | 1010.0 |
| 20260903060124 | 77 | 88 | 3.0 | 9.0 | 0.00 | 0.04 | 0.00 | 79 | 1009.9 |
| 20260903055624 | 77 | 79 | 3.0 | 9.0 | 0.00 | 0.04 | 0.00 | 79 | 1009.9 |
| 20260903055123 | 77 | 92 | 3.0 | 7.0 | 0.00 | 0.04 | 0.00 | 79 | 1009.9 |
| 20260903054622 | 77 | 72 | 3.0 | 7.0 | 0.00 | 0.04 | 0.00 | 78 | 1009.9 |
| 20260903054123 | 77 | 77 | 3.0 | 7.0 | 0.00 | 0.04 | 0.00 | 78 | 1009.9 |
| 20260903053623 | 77 | 92 | 4.0 | 8.0 | 0.00 | 0.04 | 0.00 | 78 | 1009.9 |
| 20260903053123 | 78 | 62 | 4.0 | 10.0 | 0.00 | 0.04 | 0.00 | 78 | 1009.8 |
| 20260903052624 | 78 | 97 | 4.0 | 10.0 | 0.00 | 0.04 | 0.00 | 78 | 1009.8 |
| 20260903052346 | 78 | 76 | 3.0 | 9.0 | 0.00 | 0.04 | 0.00 | 77 | 1009.8 |
| 20260903051847 | 78 | 86 | 3.0 | 8.0 | 0.00 | 0.04 | 0.00 | 77 | 1009.9 |
| 20260903051114 | 78 | 86 | 4.0 | 7.0 | 0.00 | 0.04 | 0.00 | 77 | 1009.9 |
| 20260903050613 | 78 | 79 | 4.0 | 8.0 | 0.00 | 0.04 | 0.00 | 77 | 1009.9 |
| 20260903050110 | 78 | 84 | 4.0 | 8.0 | 0.00 | 0.04 | 0.00 | 76 | 1009.9 |
| 20260903045611 | 78 | 73 | 4.0 | 7.0 | 0.00 | 0.04 | 0.04 | 76 | 1010.0 |
| 20260903045113 | 78 | 90 | 4.0 | 7.0 | 0.00 | 0.04 | 0.04 | 76 | 1010.2 |
| 20260903044612 | 78 | 80 | 4.0 | 8.0 | 0.00 | 0.04 | 0.04 | 76 | 1010.0 |
| 20260903044330 | 78 | 78 | 4.0 | 9.0 | 0.00 | 0.04 | 0.04 | 75 | 1010.0 |
| 20260903043611 | 78 | 95 | 4.0 | 9.0 | 0.00 | 0.04 | 0.04 | 75 | 1010.2 |
| 20260903043331 | 78 | 60 | 4.0 | 7.0 | 0.00 | 0.04 | 0.04 | 75 | 1010.3 |
| 20260903043055 | 78 | 86 | 3.0 | 7.0 | 0.00 | 0.04 | 0.04 | 75 | 1010.3 |
| 20260903042122 | 79 | 82 | 3.0 | 8.0 | 0.00 | 0.04 | 0.04 | 75 | 1010.3 |
| 20260903041829 | 79 | 87 | 4.0 | 8.0 | 0.00 | 0.04 | 0.04 | 75 | 1010.2 |
| 20260903041108 | 79 | 83 | 4.0 | 7.0 | 0.00 | 0.04 | 0.04 | 75 | 1010.2 |
| 20260903040608 | 79 | 87 | 4.0 | 9.0 | 0.00 | 0.04 | 0.04 | 75 | 1010.3 |
| 20260903040119 | 79 | 82 | 5.0 | 10.0 | 0.00 | 0.04 | 0.04 | 75 | 1010.3 |
| 20260903035601 | 79 | 88 | 5.0 | 11.0 | 0.00 | 0.04 | 0.04 | 75 | 1010.3 |
| 20260903035054 | 79 | 100 | 5.0 | 11.0 | 0.00 | 0.04 | 0.04 | 75 | 1010.4 |
| 20260903034552 | 79 | 77 | 4.0 | 10.0 | 0.00 | 0.04 | 0.04 | 75 | 1010.4 |
| 20260903034049 | 79 | 90 | 4.0 | 10.0 | 0.00 | 0.04 | 0.04 | 75 | 1010.4 |
| 20260903033547 | 79 | 150 | 3.0 | 10.0 | 0.00 | 0.04 | 0.04 | 74 | 1010.4 |
| 20260903033048 | 79 | 64 | 3.0 | 9.0 | 0.00 | 0.04 | 0.04 | 74 | 1010.4 |
| 20260903032547 | 79 | 82 | 3.0 | 10.0 | 0.00 | 0.04 | 0.04 | 74 | 1010.4 |
| 20260903032305 | 79 | 68 | 4.0 | 10.0 | 0.00 | 0.04 | 0.04 | 74 | 1010.5 |
| 20260903031548 | 79 | 76 | 3.0 | 9.0 | 0.00 | 0.04 | 0.04 | 73 | 1010.4 |
| 20260903031047 | 79 | 92 | 3.0 | 8.0 | 0.00 | 0.04 | 0.04 | 72 | 1010.4 |
| 20260903031026 | 79 | 80 | 2.0 | 6.0 | 0.00 | 0.04 | 0.04 | 72 | 1010.4 |
| 20260903030307 | 79 | 78 | 3.0 | 7.0 | 0.00 | 0.04 | 0.04 | 71 | 1010.5 |
| 20260903025542 | 79 | 30 | 2.0 | 7.0 | 0.00 | 0.04 | 0.04 | 71 | 1010.4 |
| 20260903025042 | 79 | 90 | 2.0 | 7.0 | 0.00 | 0.04 | 0.04 | 70 | 1010.3 |
| 20260903024542 | 79 | 87 | 1.0 | 6.0 | 0.00 | 0.04 | 0.04 | 70 | 1010.4 |
| 20260903024301 | 79 | 101 | 2.0 | 5.0 | 0.00 | 0.04 | 0.04 | 70 | 1010.3 |
| 20260903023541 | 79 | 67 | 1.0 | 5.0 | 0.00 | 0.04 | 0.04 | 69 | 1010.3 |
| 20260903023253 | 80 | 92 | 1.0 | 3.0 | 0.00 | 0.04 | 0.04 | 69 | 1010.2 |
| 20260903022530 | 80 | 92 | 1.0 | 3.0 | 0.00 | 0.04 | 0.04 | 68 | 1010.2 |
| 20260903022032 | 80 | 92 | 1.0 | 5.0 | 0.00 | 0.04 | 0.04 | 68 | 1010.2 |
| 20260903021807 | 80 | 76 | 1.0 | 5.0 | 0.00 | 0.04 | 0.04 | 68 | 1010.2 |
| 20260903021044 | 80 | 69 | 1.0 | 5.0 | 0.00 | 0.04 | 0.04 | 67 | 1010.3 |
| 20260903020747 | 80 | 78 | 1.0 | 6.0 | 0.00 | 0.04 | 0.04 | 67 | 1010.3 |
| 20260903020025 | 80 | 76 | 2.0 | 6.0 | 0.00 | 0.04 | 0.04 | 67 | 1010.3 |
| 20260903015522 | 80 | 96 | 1.0 | 5.0 | 0.00 | 0.04 | 0.04 | 67 | 1010.3 |
| 20260903015248 | 80 | 114 | 0.0 | 5.0 | 0.00 | 0.04 | 0.04 | 67 | 1010.2 |
| 20260903014522 | 80 | 97 | 1.0 | 5.0 | 0.00 | 0.04 | 0.04 | 67 | 1010.0 |
| 20260903014023 | 81 | 55 | 0.0 | 5.0 | 0.00 | 0.04 | 0.04 | 68 | 1009.9 |
| 20260903013523 | 81 | 158 | 0.0 | 1.0 | 0.00 | 0.04 | 0.04 | 67 | 1009.9 |
| 20260903013033 | 81 | 158 | 0.0 | 0.0 | 0.00 | 0.04 | 0.04 | 67 | 1009.9 |
| 20260903012519 | 81 | 158 | 0.0 | 0.0 | 0.00 | 0.04 | 0.04 | 67 | 1009.8 |
| 20260903012238 | 82 | 158 | 0.0 | 0.0 | 0.00 | 0.04 | 0.04 | 67 | 1009.7 |
| 20260903011516 | 82 | 158 | 0.0 | 0.0 | 0.00 | 0.04 | 0.04 | 66 | 1009.6 |
| 20260903011018 | 82 | 158 | 0.0 | 0.0 | 0.00 | 0.04 | 0.04 | 65 | 1009.6 |
| 20260903010516 | 83 | 158 | 0.0 | 0.0 | 0.00 | 0.04 | 0.04 | 64 | 1009.6 |
| 20260903010009 | 83 | 158 | 0.0 | 0.0 | 0.00 | 0.04 | 0.04 | 64 | 1009.5 |
| 20260903005006 | 84 | 158 | 0.0 | 0.0 | 0.00 | 0.04 | 0.04 | 62 | 1009.5 |
| 20260903004504 | 84 | 158 | 0.0 | 0.0 | 0.00 | 0.04 | 0.04 | 61 | 1009.5 |
| 20260903004003 | 85 | 158 | 0.0 | 2.0 | 0.00 | 0.04 | 0.04 | 61 | 1009.6 |
| 20260903003501 | 85 | 158 | 0.0 | 2.0 | 0.00 | 0.04 | 0.04 | 60 | 1009.6 |
| 20260903002959 | 86 | 158 | 0.0 | 4.0 | 0.00 | 0.04 | 0.04 | 58 | 1009.6 |
| 20260903002731 | 86 | 158 | 0.0 | 4.0 | 0.00 | 0.04 | 0.04 | 57 | 1009.6 |
| 20260903002448 | 86 | 159 | 0.0 | 2.0 | 0.00 | 0.04 | 0.04 | 57 | 1009.5 |
| 20260903001456 | 87 | 157 | 0.0 | 1.0 | 0.00 | 0.04 | 0.04 | 57 | 1009.6 |
| 20260903000957 | 87 | 157 | 1.0 | 4.0 | 0.00 | 0.04 | 0.04 | 56 | 1009.5 |
| 20260903000458 | 87 | 157 | 1.0 | 4.0 | 0.00 | 0.04 | 0.04 | 55 | 1009.5 |
| 20260902235954 | 87 | 153 | 2.0 | 4.0 | 0.00 | 0.04 | 0.04 | 56 | 1009.5 |
| 20260902235452 | 87 | 165 | 2.0 | 4.0 | 0.00 | 0.04 | 0.04 | 55 | 1009.5 |
| 20260902234953 | 87 | 166 | 2.0 | 4.0 | 0.00 | 0.04 | 0.04 | 55 | 1009.5 |
| 20260902234452 | 87 | 103 | 2.0 | 5.0 | 0.00 | 0.04 | 0.04 | 54 | 1009.6 |
| 20260902233951 | 88 | 156 | 2.0 | 5.0 | 0.00 | 0.04 | 0.04 | 54 | 1009.6 |
| 20260902233443 | 88 | 152 | 1.0 | 4.0 | 0.00 | 0.04 | 0.04 | 54 | 1009.6 |
| 20260902233202 | 88 | 108 | 1.0 | 4.0 | 0.00 | 0.04 | 0.04 | 54 | 1009.6 |
| 20260902232706 | 88 | 121 | 1.0 | 4.0 | 0.00 | 0.04 | 0.04 | 52 | 1009.6 |
| 20260902231939 | 88 | 142 | 1.0 | 3.0 | 0.00 | 0.04 | 0.04 | 53 | 1009.7 |
| 20260902231434 | 88 | 109 | 1.0 | 3.0 | 0.00 | 0.04 | 0.04 | 52 | 1009.7 |
| 20260902230937 | 88 | 127 | 1.0 | 3.0 | 0.00 | 0.04 | 0.04 | 52 | 1009.6 |
| 20260902230434 | 88 | 72 | 2.0 | 5.0 | 0.00 | 0.04 | 0.04 | 52 | 1009.6 |
| 20260902225937 | 88 | 153 | 1.0 | 5.0 | 0.00 | 0.04 | 0.04 | 52 | 1009.6 |
| 20260902225655 | 88 | 175 | 1.0 | 5.0 | 0.00 | 0.04 | 0.04 | 52 | 1009.6 |
| 20260902224934 | 88 | 158 | 2.0 | 5.0 | 0.00 | 0.04 | 0.04 | 53 | 1009.6 |
| 20260902224653 | 87 | 130 | 1.0 | 4.0 | 0.00 | 0.04 | 0.04 | 52 | 1009.6 |
| 20260902224420 | 87 | 304 | 0.0 | 2.0 | 0.00 | 0.04 | 0.04 | 52 | 1009.6 |
| 20260902223427 | 87 | 300 | 1.0 | 5.0 | 0.00 | 0.04 | 0.04 | 51 | 1009.7 |
| 20260902222928 | 88 | 300 | 1.0 | 5.0 | 0.00 | 0.04 | 0.04 | 50 | 1009.6 |
| 20260902222430 | 88 | 42 | 1.0 | 2.0 | 0.00 | 0.04 | 0.04 | 53 | 1009.7 |
| 20260902221928 | 87 | 36 | 2.0 | 6.0 | 0.00 | 0.04 | 0.04 | 51 | 1009.7 |
| 20260902221428 | 87 | 35 | 2.0 | 6.0 | 0.00 | 0.04 | 0.04 | 51 | 1009.7 |
| 20260902221152 | 87 | 348 | 1.0 | 5.0 | 0.00 | 0.04 | 0.04 | 51 | 1009.7 |
| 20260902220425 | 87 | 344 | 2.0 | 7.0 | 0.00 | 0.04 | 0.04 | 52 | 1009.7 |
| 20260902215924 | 87 | 88 | 2.0 | 7.0 | 0.00 | 0.04 | 0.04 | 51 | 1009.8 |
| 20260902215425 | 88 | 70 | 1.0 | 5.0 | 0.00 | 0.04 | 0.04 | 52 | 1009.8 |
| 20260902214925 | 88 | 90 | 1.0 | 5.0 | 0.00 | 0.04 | 0.04 | 52 | 1009.8 |
| 20260902214423 | 88 | 240 | 1.0 | 5.0 | 0.00 | 0.04 | 0.04 | 52 | 1009.8 |
| 20260902213921 | 88 | 105 | 1.0 | 4.0 | 0.00 | 0.04 | 0.04 | 52 | 1009.8 |
| 20260902213422 | 87 | 158 | 2.0 | 4.0 | 0.00 | 0.04 | 0.04 | 53 | 1009.8 |
| 20260902212920 | 87 | 213 | 2.0 | 5.0 | 0.00 | 0.04 | 0.04 | 52 | 1009.9 |
| 20260902212643 | 87 | 263 | 2.0 | 5.0 | 0.00 | 0.04 | 0.04 | 51 | 1010.0 |
| 20260902212539 | 87 | 228 | 2.0 | 7.0 | 0.00 | 0.04 | 0.04 | 52 | 1010.0 |
| 20260902211415 | 87 | 87 | 2.0 | 7.0 | 0.00 | 0.04 | 0.04 | 52 | 1009.9 |
| 20260902210918 | 87 | 87 | 1.0 | 6.0 | 0.00 | 0.04 | 0.04 | 52 | 1009.9 |
| 20260902210856 | 87 | 74 | 1.0 | 3.0 | 0.00 | 0.04 | 0.04 | 53 | 1009.9 |
| 20260902210140 | 87 | 38 | 1.0 | 6.0 | 0.00 | 0.04 | 0.04 | 53 | 1010.0 |
| 20260902205637 | 86 | 337 | 2.0 | 6.0 | 0.00 | 0.04 | 0.04 | 53 | 1010.0 |
| 20260902205129 | 86 | 42 | 3.0 | 7.0 | 0.00 | 0.04 | 0.04 | 55 | 1010.0 |
| 20260902204415 | 86 | 169 | 2.0 | 7.0 | 0.00 | 0.04 | 0.04 | 55 | 1010.0 |
| 20260902203915 | 86 | 68 | 2.0 | 5.0 | 0.00 | 0.04 | 0.04 | 54 | 1010.0 |
| 20260902203415 | 86 | 346 | 2.0 | 5.0 | 0.00 | 0.04 | 0.04 | 54 | 1010.2 |
| 20260902202915 | 86 | 226 | 2.0 | 7.0 | 0.00 | 0.04 | 0.04 | 56 | 1010.3 |
| 20260902202414 | 86 | 81 | 3.0 | 7.0 | 0.00 | 0.04 | 0.04 | 54 | 1010.3 |
| 20260902201914 | 86 | 149 | 3.0 | 5.0 | 0.00 | 0.04 | 0.04 | 55 | 1010.4 |
| 20260902201417 | 86 | 266 | 3.0 | 5.0 | 0.00 | 0.04 | 0.04 | 55 | 1010.4 |
| 20260902201131 | 86 | 139 | 3.0 | 7.0 | 0.00 | 0.04 | 0.04 | 56 | 1010.4 |
| 20260902200635 | 85 | 148 | 3.0 | 7.0 | 0.00 | 0.04 | 0.04 | 55 | 1010.6 |
| 20260902195912 | 86 | 65 | 2.0 | 9.0 | 0.00 | 0.04 | 0.04 | 56 | 1010.7 |
| 20260902195412 | 86 | 116 | 2.0 | 9.0 | 0.00 | 0.04 | 0.04 | 56 | 1010.7 |
| 20260902194913 | 85 | 139 | 2.0 | 6.0 | 0.00 | 0.04 | 0.04 | 55 | 1010.9 |
| 20260902194407 | 85 | 98 | 3.0 | 7.0 | 0.00 | 0.04 | 0.04 | 57 | 1011.0 |
| 20260902194136 | 85 | 121 | 3.0 | 7.0 | 0.00 | 0.04 | 0.04 | 57 | 1011.0 |
| 20260902193406 | 85 | 151 | 2.0 | 6.0 | 0.00 | 0.04 | 0.04 | 57 | 1011.0 |
| 20260902192907 | 85 | 235 | 2.0 | 6.0 | 0.00 | 0.04 | 0.04 | 59 | 1011.0 |
| 20260902192633 | 85 | 185 | 2.0 | 6.0 | 0.00 | 0.04 | 0.04 | 56 | 1011.1 |
| 20260902191906 | 85 | 202 | 2.0 | 6.0 | 0.00 | 0.04 | 0.04 | 57 | 1011.1 |
| 20260902191407 | 85 | 106 | 2.0 | 6.0 | 0.00 | 0.04 | 0.04 | 56 | 1011.0 |
| 20260902190906 | 85 | 136 | 1.0 | 6.0 | 0.00 | 0.04 | 0.04 | 58 | 1011.0 |
| 20260902190406 | 85 | 103 | 1.0 | 3.0 | 0.00 | 0.04 | 0.04 | 58 | 1011.1 |
| 20260902190128 | 84 | 304 | 2.0 | 5.0 | 0.00 | 0.04 | 0.04 | 57 | 1011.1 |
| 20260902185406 | 84 | 82 | 2.0 | 5.0 | 0.00 | 0.04 | 0.04 | 59 | 1011.1 |
| 20260902185126 | 83 | 172 | 2.0 | 5.0 | 0.00 | 0.04 | 0.04 | 59 | 1011.1 |
| 20260902184844 | 83 | 201 | 2.0 | 5.0 | 0.00 | 0.04 | 0.04 | 58 | 1011.1 |
| 20260902183904 | 83 | 201 | 2.0 | 5.0 | 0.00 | 0.04 | 0.04 | 60 | 1011.1 |
| 20260902183405 | 83 | 123 | 2.0 | 6.0 | 0.00 | 0.04 | 0.04 | 59 | 1011.1 |
| 20260902182904 | 83 | 167 | 2.0 | 6.0 | 0.00 | 0.04 | 0.04 | 60 | 1011.2 |
| 20260902182405 | 83 | 153 | 2.0 | 4.0 | 0.00 | 0.04 | 0.04 | 59 | 1011.2 |
| 20260902181904 | 83 | 340 | 2.0 | 6.0 | 0.00 | 0.04 | 0.04 | 60 | 1011.3 |
| 20260902181404 | 83 | 178 | 2.0 | 6.0 | 0.00 | 0.04 | 0.04 | 60 | 1011.3 |
| 20260902180905 | 82 | 121 | 2.0 | 5.0 | 0.00 | 0.04 | 0.04 | 60 | 1011.4 |
| 20260902180405 | 82 | 155 | 2.0 | 8.0 | 0.00 | 0.04 | 0.04 | 59 | 1011.5 |
| 20260902175905 | 82 | 146 | 2.0 | 8.0 | 0.00 | 0.04 | 0.04 | 60 | 1011.7 |
| 20260902175406 | 82 | 140 | 2.0 | 6.0 | 0.00 | 0.04 | 0.04 | 60 | 1011.8 |
| 20260902175326 | 82 | 350 | 2.0 | 7.0 | 0.00 | 0.04 | 0.04 | 62 | 1012.0 |
| 20260902174951 | 82 | 175 | 2.0 | 7.0 | 0.00 | 0.04 | 0.04 | 63 | 1011.9 |
| 20260902173903 | 81 | 221 | 2.0 | 7.0 | 0.00 | 0.04 | 0.04 | 64 | 1012.0 |
| 20260902173404 | 81 | 161 | 2.0 | 6.0 | 0.00 | 0.04 | 0.04 | 64 | 1012.1 |
| 20260902172904 | 82 | 99 | 2.0 | 6.0 | 0.00 | 0.04 | 0.04 | 63 | 1012.2 |
| 20260902172405 | 81 | 126 | 1.0 | 4.0 | 0.00 | 0.04 | 0.04 | 64 | 1012.4 |
| 20260902171905 | 82 | 143 | 2.0 | 7.0 | 0.00 | 0.04 | 0.04 | 64 | 1012.6 |
| 20260902171626 | 82 | 157 | 2.0 | 7.0 | 0.00 | 0.04 | 0.04 | 62 | 1012.5 |
| 20260902170918 | 81 | 134 | 1.0 | 4.0 | 0.00 | 0.04 | 0.04 | 64 | 1012.5 |
| 20260902170404 | 81 | 180 | 2.0 | 3.0 | 0.00 | 0.04 | 0.04 | 64 | 1012.4 |
| 20260902165905 | 80 | 163 | 1.0 | 3.0 | 0.00 | 0.04 | 0.04 | 67 | 1012.1 |
| 20260902165405 | 79 | 158 | 1.0 | 3.0 | 0.00 | 0.04 | 0.04 | 67 | 1012.0 |
| 20260902164905 | 79 | 185 | 1.0 | 3.0 | 0.00 | 0.04 | 0.04 | 66 | 1012.1 |
| 20260902164404 | 79 | 146 | 1.0 | 5.0 | 0.00 | 0.04 | 0.04 | 63 | 1012.2 |
| 20260902163900 | 80 | 146 | 1.0 | 5.0 | 0.00 | 0.04 | 0.04 | 66 | 1012.3 |
| 20260902163400 | 79 | 68 | 1.0 | 4.0 | 0.00 | 0.04 | 0.04 | 65 | 1012.2 |
| 20260902162901 | 79 | 76 | 2.0 | 5.0 | 0.00 | 0.04 | 0.04 | 66 | 1012.4 |
| 20260902162401 | 79 | 131 | 1.0 | 5.0 | 0.00 | 0.04 | 0.04 | 69 | 1012.3 |
| 20260902161900 | 79 | 148 | 1.0 | 5.0 | 0.00 | 0.04 | 0.04 | 67 | 1012.2 |
| 20260902161624 | 78 | 155 | 2.0 | 5.0 | 0.00 | 0.04 | 0.04 | 68 | 1012.4 |
| 20260902160902 | 79 | 141 | 2.0 | 5.0 | 0.00 | 0.04 | 0.04 | 67 | 1012.3 |
| 20260902160400 | 79 | 144 | 2.0 | 5.0 | 0.00 | 0.04 | 0.04 | 68 | 1012.0 |
| 20260902155900 | 78 | 208 | 2.0 | 5.0 | 0.00 | 0.04 | 0.04 | 70 | 1012.0 |
| 20260902155357 | 78 | 157 | 2.0 | 5.0 | 0.00 | 0.04 | 0.04 | 72 | 1012.0 |
| 20260902154857 | 77 | 163 | 2.0 | 5.0 | 0.00 | 0.04 | 0.04 | 70 | 1011.9 |
| 20260902154354 | 77 | 90 | 2.0 | 7.0 | 0.00 | 0.04 | 0.04 | 71 | 1011.8 |
| 20260902153853 | 77 | 87 | 3.0 | 7.0 | 0.00 | 0.04 | 0.04 | 71 | 1011.9 |
| 20260902153354 | 76 | 160 | 2.0 | 8.0 | 0.00 | 0.04 | 0.04 | 74 | 1011.9 |
| 20260902152854 | 75 | 75 | 2.0 | 8.0 | 0.00 | 0.04 | 0.04 | 73 | 1011.9 |
| 20260902152353 | 76 | 142 | 2.0 | 5.0 | 0.00 | 0.04 | 0.04 | 73 | 1012.0 |
| 20260902151852 | 76 | 218 | 2.0 | 5.0 | 0.00 | 0.04 | 0.04 | 76 | 1012.0 |
| 20260902151351 | 75 | 157 | 2.0 | 8.0 | 0.00 | 0.04 | 0.04 | 76 | 1012.0 |
| 20260902150850 | 75 | 164 | 2.0 | 8.0 | 0.00 | 0.04 | 0.04 | 77 | 1011.9 |
| 20260902150346 | 74 | 80 | 2.0 | 7.0 | 0.00 | 0.04 | 0.04 | 78 | 1011.8 |
| 20260902145846 | 73 | 76 | 2.0 | 5.0 | 0.00 | 0.04 | 0.04 | 77 | 1011.8 |
| 20260902145345 | 73 | 80 | 1.0 | 5.0 | 0.00 | 0.04 | 0.04 | 78 | 1011.7 |
| 20260902144844 | 73 | 127 | 1.0 | 5.0 | 0.00 | 0.04 | 0.04 | 79 | 1011.9 |
| 20260902144343 | 73 | 158 | 1.0 | 5.0 | 0.00 | 0.04 | 0.04 | 82 | 1012.0 |
| 20260902143845 | 72 | 148 | 2.0 | 5.0 | 0.00 | 0.04 | 0.04 | 81 | 1011.9 |
| 20260902143356 | 72 | 150 | 1.0 | 5.0 | 0.00 | 0.04 | 0.04 | 82 | 1012.0 |
| 20260902142834 | 71 | 149 | 1.0 | 5.0 | 0.00 | 0.04 | 0.04 | 83 | 1012.1 |
| 20260902142328 | 71 | 89 | 1.0 | 5.0 | 0.00 | 0.04 | 0.04 | 84 | 1012.1 |
| 20260902141827 | 70 | 84 | 1.0 | 5.0 | 0.00 | 0.04 | 0.04 | 84 | 1012.1 |
| 20260902141328 | 70 | 83 | 1.0 | 6.0 | 0.00 | 0.04 | 0.04 | 86 | 1012.2 |
| 20260902141029 | 69 | 326 | 0.0 | 2.0 | 0.00 | 0.04 | 0.04 | 87 | 1012.1 |
| 20260902140916 | 69 | 84 | 0.0 | 6.0 | 0.00 | 0.04 | 0.04 | 86 | 1012.1 |
| 20260902135823 | 68 | 326 | 1.0 | 3.0 | 0.00 | 0.04 | 0.04 | 87 | 1012.1 |
| 20260902135324 | 68 | 325 | 1.0 | 3.0 | 0.00 | 0.04 | 0.04 | 88 | 1012.1 |
| 20260902134821 | 68 | 0 | 1.0 | 2.0 | 0.00 | 0.04 | 0.04 | 89 | 1012.0 |
| 20260902134319 | 67 | 73 | 2.0 | 6.0 | 0.00 | 0.04 | 0.04 | 89 | 1012.1 |
| 20260902133817 | 67 | 79 | 2.0 | 6.0 | 0.00 | 0.04 | 0.04 | 90 | 1012.3 |
| 20260902133540 | 67 | 85 | 2.0 | 4.0 | 0.00 | 0.04 | 0.04 | 91 | 1012.2 |
| 20260902132818 | 67 | 153 | 1.0 | 3.0 | 0.00 | 0.04 | 0.04 | 91 | 1012.2 |
| 20260902132317 | 66 | 153 | 1.0 | 3.0 | 0.00 | 0.04 | 0.04 | 91 | 1012.2 |
| 20260902131819 | 66 | 148 | 0.0 | 2.0 | 0.00 | 0.04 | 0.04 | 91 | 1012.2 |
| 20260902131317 | 66 | 151 | 0.0 | 2.0 | 0.00 | 0.04 | 0.04 | 91 | 1012.2 |
| 20260902130815 | 66 | 160 | 0.0 | 1.0 | 0.00 | 0.04 | 0.04 | 91 | 1012.1 |
| 20260902130314 | 66 | 160 | 0.0 | 1.0 | 0.00 | 0.04 | 0.04 | 91 | 1012.1 |
| 20260902125811 | 66 | 161 | 1.0 | 4.0 | 0.00 | 0.04 | 0.04 | 91 | 1012.1 |
| 20260902125535 | 66 | 160 | 1.0 | 4.0 | 0.00 | 0.04 | 0.04 | 91 | 1012.1 |
| 20260902124810 | 66 | 158 | 1.0 | 8.0 | 0.00 | 0.04 | 0.04 | 91 | 1012.2 |
| 20260902124309 | 66 | 96 | 1.0 | 8.0 | 0.00 | 0.04 | 0.04 | 91 | 1012.1 |
| 20260902123810 | 66 | 111 | 0.0 | 1.0 | 0.00 | 0.04 | 0.04 | 91 | 1012.2 |
| 20260902123308 | 65 | 111 | 0.0 | 3.0 | 0.00 | 0.04 | 0.04 | 91 | 1012.2 |
| 20260902122806 | 65 | 111 | 1.0 | 3.0 | 0.00 | 0.04 | 0.04 | 92 | 1012.1 |
| 20260902122754 | 65 | 132 | 1.0 | 5.0 | 0.00 | 0.04 | 0.04 | 92 | 1012.1 |
| 20260902122247 | 65 | 78 | 0.0 | 5.0 | 0.00 | 0.04 | 0.04 | 92 | 1012.0 |
| 20260902121304 | 65 | 117 | 1.0 | 2.0 | 0.00 | 0.04 | 0.04 | 92 | 1012.1 |
| 20260902120801 | 65 | 117 | 1.0 | 2.0 | 0.00 | 0.04 | 0.04 | 92 | 1012.2 |
| 20260902120300 | 65 | 115 | 1.0 | 2.0 | 0.00 | 0.04 | 0.04 | 91 | 1012.3 |
| 20260902115801 | 65 | 114 | 1.0 | 3.0 | 0.00 | 0.04 | 0.04 | 91 | 1012.3 |
| 20260902115259 | 65 | 102 | 1.0 | 3.0 | 0.00 | 0.04 | 0.04 | 91 | 1012.3 |
| 20260902114758 | 65 | 103 | 1.0 | 3.0 | 0.00 | 0.04 | 0.04 | 91 | 1012.1 |
| 20260902114256 | 65 | 105 | 0.0 | 3.0 | 0.00 | 0.04 | 0.04 | 91 | 1012.2 |
| 20260902113753 | 65 | 109 | 0.0 | 1.0 | 0.00 | 0.04 | 0.04 | 91 | 1012.4 |
| 20260902113254 | 65 | 109 | 1.0 | 2.0 | 0.00 | 0.04 | 0.04 | 91 | 1012.4 |
| 20260902112755 | 65 | 109 | 1.0 | 3.0 | 0.00 | 0.04 | 0.04 | 91 | 1012.5 |
| 20260902112253 | 65 | 105 | 1.0 | 3.0 | 0.00 | 0.04 | 0.04 | 91 | 1012.7 |
| 20260902111754 | 65 | 132 | 1.0 | 4.0 | 0.00 | 0.04 | 0.04 | 91 | 1012.7 |
| 20260902111253 | 65 | 132 | 1.0 | 5.0 | 0.00 | 0.04 | 0.04 | 91 | 1012.6 |
| 20260902110752 | 65 | 128 | 1.0 | 5.0 | 0.00 | 0.04 | 0.04 | 91 | 1012.6 |
| 20260902110249 | 65 | 128 | 1.0 | 3.0 | 0.00 | 0.04 | 0.04 | 91 | 1012.7 |
| 20260902105749 | 65 | 157 | 0.0 | 3.0 | 0.00 | 0.04 | 0.04 | 91 | 1012.6 |
| 20260902105249 | 65 | 157 | 0.0 | 3.0 | 0.00 | 0.04 | 0.04 | 91 | 1012.6 |
| 20260902104747 | 66 | 157 | 0.0 | 2.0 | 0.00 | 0.04 | 0.04 | 91 | 1012.8 |
| 20260902104511 | 66 | 156 | 0.0 | 2.0 | 0.00 | 0.04 | 0.04 | 92 | 1012.9 |
| 20260902103745 | 66 | 155 | 0.0 | 2.0 | 0.00 | 0.04 | 0.04 | 92 | 1013.0 |
| 20260902103246 | 66 | 155 | 0.0 | 2.0 | 0.00 | 0.04 | 0.04 | 92 | 1012.7 |
| 20260902102756 | 66 | 156 | 0.0 | 2.0 | 0.00 | 0.04 | 0.04 | 92 | 1012.8 |
| 20260902102242 | 66 | 156 | 0.0 | 2.0 | 0.00 | 0.04 | 0.04 | 92 | 1012.7 |
| 20260902101737 | 66 | 156 | 0.0 | 2.0 | 0.00 | 0.04 | 0.04 | 92 | 1012.7 |
| 20260902101237 | 66 | 153 | 0.0 | 0.0 | 0.00 | 0.04 | 0.04 | 92 | 1012.7 |